Time,TemperatureF,DewpointF,PressureIn,WindDirection,WindDirectionDegrees,WindSpeedMPH,WindSpeedGustMPH,Humidity,HourlyPrecipIn,Conditions,Clouds,dailyrainin,SoftwareType,DateUTC
2013-11-10 00:00:00,43.0,32.1,30.01,WSW,250,0.0,1.0,65,0.00,,---,0.00,VWS V14.01,2013-11-10 05:00:00,
2013-11-10 00:01:00,43.0,32.1,30.01,WSW,250,0.0,1.0,65,0.00,,---,0.00,VWS V14.01,2013-11-10 05:01:00,
2013-11-10 00:06:00,42.9,32.3,30.00,WSW,250,0.0,0.0,66,0.00,,---,0.00,VWS V14.01,2013-11-10 05:06:00,
2013-11-10 00:11:00,42.9,32.0,30.00,WSW,256,0.0,1.0,65,0.00,,---,0.00,VWS V14.01,2013-11-10 05:11:00,
2013-11-10 00:16:00,42.9,32.0,30.00,WSW,256,0.0,1.0,65,0.00,,---,0.00,VWS V14.01,2013-11-10 05:16:00,
2013-11-10 00:21:00,42.9,32.3,30.00,WSW,256,0.0,1.0,66,0.00,,---,0.00,VWS V14.01,2013-11-10 05:21:00,
2013-11-10 00:26:00,42.8,32.2,29.99,WSW,252,0.0,1.0,66,0.00,,---,0.00,VWS V14.01,2013-11-10 05:26:00,
2013-11-10 00:30:00,42.8,32.2,29.99,WSW,252,0.0,1.0,66,0.00,,---,0.00,VWS V14.01,2013-11-10 05:30:00,
2013-11-10 00:31:00,42.8,32.2,29.99,WSW,252,0.0,0.0,66,0.00,,---,0.00,VWS V14.01,2013-11-10 05:31:00,
2013-11-10 00:36:00,42.8,32.6,29.99,WSW,253,0.0,0.0,67,0.00,,---,0.00,VWS V14.01,2013-11-10 05:36:00,
2013-11-10 00:41:00,42.7,32.2,29.99,WSW,253,0.0,1.0,66,0.00,,---,0.00,VWS V14.01,2013-11-10 05:41:00,
2013-11-10 00:46:00,42.7,32.2,29.98,WSW,253,0.0,1.0,66,0.00,,---,0.00,VWS V14.01,2013-11-10 05:46:00,
2013-11-10 00:51:00,42.7,32.5,29.98,West,271,0.0,1.0,67,0.00,,---,0.00,VWS V14.01,2013-11-10 05:51:00,
2013-11-10 00:56:00,42.6,32.4,29.98,West,271,0.0,1.0,67,0.00,,---,0.00,VWS V14.01,2013-11-10 05:56:00,
2013-11-10 01:00:00,42.4,32.2,29.97,West,270,0.0,1.0,67,0.00,,---,0.00,VWS V14.01,2013-11-10 06:00:00,
2013-11-10 01:01:00,42.4,32.2,29.97,West,270,0.0,0.0,67,0.00,,---,0.00,VWS V14.01,2013-11-10 06:01:00,
2013-11-10 01:06:00,42.2,32.4,29.97,West,270,0.0,1.0,68,0.00,,---,0.00,VWS V14.01,2013-11-10 06:06:00,
2013-11-10 01:11:00,42.1,32.3,29.96,West,270,0.0,1.0,68,0.00,,---,0.00,VWS V14.01,2013-11-10 06:11:00,
2013-11-10 01:16:00,41.8,32.0,29.96,West,270,0.0,1.0,68,0.00,,---,0.00,VWS V14.01,2013-11-10 06:16:00,
2013-11-10 01:21:00,41.6,32.2,29.96,West,270,0.0,1.0,69,0.00,,---,0.00,VWS V14.01,2013-11-10 06:21:00,
2013-11-10 01:26:00,41.4,32.7,29.96,West,270,0.0,1.0,71,0.00,,---,0.00,VWS V14.01,2013-11-10 06:26:00,
2013-11-10 01:30:00,41.3,32.6,29.96,West,270,0.0,1.0,71,0.00,,---,0.00,VWS V14.01,2013-11-10 06:30:00,
2013-11-10 01:31:00,41.3,32.6,29.96,West,270,0.0,0.0,71,0.00,,---,0.00,VWS V14.01,2013-11-10 06:31:00,
2013-11-10 01:36:00,41.2,32.5,29.96,West,270,0.0,0.0,71,0.00,,---,0.00,VWS V14.01,2013-11-10 06:36:00,
2013-11-10 01:41:00,41.1,32.4,29.96,West,271,0.0,0.0,71,0.00,,---,0.00,VWS V14.01,2013-11-10 06:41:00,
2013-11-10 01:46:00,41.1,32.8,29.96,West,271,0.0,0.0,72,0.00,,---,0.00,VWS V14.01,2013-11-10 06:46:00,
2013-11-10 01:51:00,41.0,32.7,29.96,West,271,0.0,1.0,72,0.00,,---,0.00,VWS V14.01,2013-11-10 06:51:00,
2013-11-10 01:56:00,41.0,33.0,29.96,West,271,0.0,1.0,73,0.00,,---,0.00,VWS V14.01,2013-11-10 06:56:00,
2013-11-10 02:00:00,40.9,32.9,29.95,West,271,0.0,1.0,73,0.00,,---,0.00,VWS V14.01,2013-11-10 07:00:00,
2013-11-10 02:01:00,40.9,32.9,29.96,West,271,0.0,0.0,73,0.00,,---,0.00,VWS V14.01,2013-11-10 07:01:00,
2013-11-10 02:06:00,40.9,32.9,29.95,West,271,0.0,0.0,73,0.00,,---,0.00,VWS V14.01,2013-11-10 07:06:00,
2013-11-10 02:11:00,40.9,32.9,29.95,West,271,0.0,0.0,73,0.00,,---,0.00,VWS V14.01,2013-11-10 07:11:00,
2013-11-10 02:16:00,40.9,32.9,29.95,West,270,0.0,0.0,73,0.00,,---,0.00,VWS V14.01,2013-11-10 07:16:00,
2013-11-10 02:21:00,40.9,32.9,29.95,West,270,0.0,0.0,73,0.00,,---,0.00,VWS V14.01,2013-11-10 07:21:00,
2013-11-10 02:26:00,40.9,33.3,29.95,East,87,1.0,2.0,74,0.00,,---,0.00,VWS V14.01,2013-11-10 07:26:00,
2013-11-10 02:30:00,41.0,33.4,29.95,ESE,106,0.0,2.0,74,0.00,,---,0.00,VWS V14.01,2013-11-10 07:30:00,
2013-11-10 02:31:00,41.0,33.4,29.95,ESE,105,0.0,0.0,74,0.00,,---,0.00,VWS V14.01,2013-11-10 07:31:00,
2013-11-10 02:36:00,41.1,33.8,29.95,ESE,105,0.0,0.0,75,0.00,,---,0.00,VWS V14.01,2013-11-10 07:36:00,
2013-11-10 02:41:00,41.1,33.5,29.95,ESE,105,0.0,1.0,74,0.00,,---,0.00,VWS V14.01,2013-11-10 07:41:00,
2013-11-10 02:46:00,41.2,33.2,29.94,ESE,106,0.0,1.0,73,0.00,,---,0.00,VWS V14.01,2013-11-10 07:46:00,
2013-11-10 02:51:00,41.3,33.7,29.94,ESE,104,0.0,1.0,74,0.00,,---,0.00,VWS V14.01,2013-11-10 07:51:00,
2013-11-10 02:56:00,41.4,33.8,29.94,ESE,106,0.0,1.0,74,0.00,,---,0.00,VWS V14.01,2013-11-10 07:56:00,
2013-11-10 03:00:00,41.4,33.4,29.94,ESE,106,0.0,1.0,73,0.00,,---,0.00,VWS V14.01,2013-11-10 08:00:00,
2013-11-10 03:01:00,41.4,33.4,29.93,ESE,106,0.0,0.0,73,0.00,,---,0.00,VWS V14.01,2013-11-10 08:01:00,
2013-11-10 03:06:00,41.4,33.8,29.93,ESE,106,0.0,0.0,74,0.00,,---,0.00,VWS V14.01,2013-11-10 08:06:00,
2013-11-10 03:11:00,41.3,33.7,29.93,ESE,106,0.0,0.0,74,0.00,,---,0.00,VWS V14.01,2013-11-10 08:11:00,
2013-11-10 03:16:00,41.3,34.0,29.93,ESE,106,0.0,0.0,75,0.00,,---,0.00,VWS V14.01,2013-11-10 08:16:00,
2013-11-10 03:21:00,41.1,33.8,29.93,ESE,106,0.0,0.0,75,0.00,,---,0.00,VWS V14.01,2013-11-10 08:21:00,
2013-11-10 03:26:00,41.0,33.7,29.93,ESE,105,0.0,0.0,75,0.00,,---,0.00,VWS V14.01,2013-11-10 08:26:00,
2013-11-10 03:30:00,41.0,33.7,29.93,ESE,106,0.0,0.0,75,0.00,,---,0.00,VWS V14.01,2013-11-10 08:30:00,
2013-11-10 03:31:00,40.9,33.6,29.93,ESE,105,0.0,0.0,75,0.00,,---,0.00,VWS V14.01,2013-11-10 08:31:00,
2013-11-10 03:36:00,40.9,33.6,29.93,ESE,106,0.0,0.0,75,0.00,,---,0.00,VWS V14.01,2013-11-10 08:36:00,
2013-11-10 03:41:00,40.7,34.1,29.93,ESE,105,0.0,0.0,77,0.00,,---,0.00,VWS V14.01,2013-11-10 08:41:00,
2013-11-10 03:46:00,40.4,33.8,29.93,ESE,104,0.0,0.0,77,0.00,,---,0.00,VWS V14.01,2013-11-10 08:46:00,
2013-11-10 03:51:00,40.2,33.6,29.93,ESE,105,0.0,0.0,77,0.00,,---,0.00,VWS V14.01,2013-11-10 08:51:00,
2013-11-10 03:56:00,39.9,33.6,29.93,ESE,106,0.0,0.0,78,0.00,,---,0.00,VWS V14.01,2013-11-10 08:56:00,
2013-11-10 04:00:00,39.6,33.3,29.92,ESE,105,0.0,0.0,78,0.00,,---,0.00,VWS V14.01,2013-11-10 09:00:00,
2013-11-10 04:01:00,39.6,33.3,29.92,ESE,105,0.0,0.0,78,0.00,,---,0.00,VWS V14.01,2013-11-10 09:01:00,
2013-11-10 04:06:00,39.4,33.4,29.92,ESE,105,0.0,0.0,79,0.00,,---,0.00,VWS V14.01,2013-11-10 09:06:00,
2013-11-10 04:11:00,39.2,33.6,29.92,ESE,105,0.0,0.0,80,0.00,,---,0.00,VWS V14.01,2013-11-10 09:11:00,
2013-11-10 04:16:00,39.1,33.5,29.92,ESE,105,0.0,0.0,80,0.00,,---,0.00,VWS V14.01,2013-11-10 09:16:00,
2013-11-10 04:21:00,38.9,33.3,29.92,ESE,106,0.0,0.0,80,0.00,,---,0.00,VWS V14.01,2013-11-10 09:21:00,
2013-11-10 04:26:00,38.8,33.5,29.92,ESE,105,0.0,0.0,81,0.00,,---,0.00,VWS V14.01,2013-11-10 09:26:00,
2013-11-10 04:30:00,38.9,33.6,29.92,ESE,105,0.0,0.0,81,0.00,,---,0.00,VWS V14.01,2013-11-10 09:30:00,
2013-11-10 04:31:00,38.9,33.6,29.92,ESE,106,0.0,0.0,81,0.00,,---,0.00,VWS V14.01,2013-11-10 09:31:00,
2013-11-10 04:36:00,38.8,33.5,29.92,ESE,106,0.0,0.0,81,0.00,,---,0.00,VWS V14.01,2013-11-10 09:36:00,
2013-11-10 04:41:00,38.9,33.9,29.92,ESE,106,0.0,0.0,82,0.00,,---,0.00,VWS V14.01,2013-11-10 09:41:00,
2013-11-10 04:46:00,39.0,33.7,29.92,ESE,106,0.0,0.0,81,0.00,,---,0.00,VWS V14.01,2013-11-10 09:46:00,
2013-11-10 04:51:00,39.2,33.6,29.92,ESE,105,0.0,0.0,80,0.00,,---,0.00,VWS V14.01,2013-11-10 09:51:00,
2013-11-10 04:56:00,39.3,33.7,29.92,ESE,105,0.0,0.0,80,0.00,,---,0.00,VWS V14.01,2013-11-10 09:56:00,
2013-11-10 05:00:00,39.3,33.7,29.92,West,262,1.0,1.0,80,0.00,,---,0.00,VWS V14.01,2013-11-10 10:00:00,
2013-11-10 05:01:00,39.3,33.7,29.92,West,262,1.0,1.0,80,0.00,,---,0.00,VWS V14.01,2013-11-10 10:01:00,
2013-11-10 05:06:00,39.4,33.8,29.92,West,262,0.0,1.0,80,0.00,,---,0.00,VWS V14.01,2013-11-10 10:06:00,
2013-11-10 05:11:00,39.4,33.8,29.92,West,262,0.0,1.0,80,0.00,,---,0.00,VWS V14.01,2013-11-10 10:11:00,
2013-11-10 05:16:00,39.3,33.7,29.92,West,262,0.0,1.0,80,0.00,,---,0.00,VWS V14.01,2013-11-10 10:16:00,
2013-11-10 05:21:00,39.2,33.6,29.91,West,262,0.0,1.0,80,0.00,,---,0.00,VWS V14.01,2013-11-10 10:21:00,
2013-11-10 05:26:00,39.1,33.8,29.91,West,262,0.0,1.0,81,0.00,,---,0.00,VWS V14.01,2013-11-10 10:26:00,
2013-11-10 05:30:00,39.1,34.1,29.91,West,262,0.0,1.0,82,0.00,,---,0.00,VWS V14.01,2013-11-10 10:30:00,
2013-11-10 05:31:00,39.1,34.1,29.91,West,262,0.0,0.0,82,0.00,,---,0.00,VWS V14.01,2013-11-10 10:31:00,
2013-11-10 05:36:00,39.0,34.3,29.91,West,262,0.0,0.0,83,0.00,,---,0.00,VWS V14.01,2013-11-10 10:36:00,
2013-11-10 05:41:00,38.7,33.7,29.91,West,262,0.0,0.0,82,0.00,,---,0.00,VWS V14.01,2013-11-10 10:41:00,
2013-11-10 05:46:00,38.6,33.6,29.91,West,273,0.0,1.0,82,0.00,,---,0.00,VWS V14.01,2013-11-10 10:46:00,
2013-11-10 05:51:00,38.5,33.5,29.91,West,273,0.0,1.0,82,0.00,,---,0.00,VWS V14.01,2013-11-10 10:51:00,
2013-11-10 05:56:00,38.2,33.2,29.91,West,273,0.0,1.0,82,0.00,,---,0.00,VWS V14.01,2013-11-10 10:56:00,
2013-11-10 06:00:00,37.8,33.1,29.91,West,273,0.0,1.0,83,0.00,,---,0.00,VWS V14.01,2013-11-10 11:00:00,
2013-11-10 06:01:00,37.8,33.1,29.91,West,273,0.0,1.0,83,0.00,,---,0.00,VWS V14.01,2013-11-10 11:01:00,
2013-11-10 06:06:00,37.4,32.7,29.91,West,273,0.0,0.0,83,0.00,,---,0.00,VWS V14.01,2013-11-10 11:06:00,
2013-11-10 06:11:00,37.1,32.7,29.91,West,273,0.0,0.0,84,0.00,,---,0.00,VWS V14.01,2013-11-10 11:11:00,
2013-11-10 06:16:00,36.8,32.7,29.91,West,273,0.0,0.0,85,0.00,,---,0.00,VWS V14.01,2013-11-10 11:16:00,
2013-11-10 06:21:00,36.5,32.7,29.91,West,273,0.0,1.0,86,0.00,,---,0.00,VWS V14.01,2013-11-10 11:21:00,
2013-11-10 06:26:00,36.2,32.4,29.91,West,273,0.0,1.0,86,0.00,,---,0.00,VWS V14.01,2013-11-10 11:26:00,
2013-11-10 06:30:00,35.9,32.1,29.91,West,273,0.0,1.0,86,0.00,,---,0.00,VWS V14.01,2013-11-10 11:30:00,
2013-11-10 06:31:00,35.9,32.1,29.91,West,273,0.0,1.0,86,0.00,,---,0.00,VWS V14.01,2013-11-10 11:31:00,
2013-11-10 06:36:00,35.7,32.2,29.91,West,272,0.0,0.0,87,0.00,,---,0.00,VWS V14.01,2013-11-10 11:36:00,
2013-11-10 06:41:00,35.4,31.9,29.91,West,273,0.0,0.0,87,0.00,,---,0.00,VWS V14.01,2013-11-10 11:41:00,
2013-11-10 06:46:00,35.3,31.8,29.90,West,273,0.0,0.0,87,0.00,,---,0.00,VWS V14.01,2013-11-10 11:46:00,
2013-11-10 06:51:00,35.0,31.8,29.91,West,273,0.0,0.0,88,0.00,,---,0.00,VWS V14.01,2013-11-10 11:51:00,
2013-11-10 06:56:00,34.9,32.0,29.91,West,273,0.0,0.0,89,0.00,,---,0.00,VWS V14.01,2013-11-10 11:56:00,
2013-11-10 07:00:00,34.7,31.8,29.91,SW,228,1.0,1.0,89,0.00,,---,0.00,VWS V14.01,2013-11-10 12:00:00,
2013-11-10 07:01:00,34.7,31.8,29.91,SW,228,1.0,1.0,89,0.00,,---,0.00,VWS V14.01,2013-11-10 12:01:00,
2013-11-10 07:06:00,34.7,31.8,29.91,SW,228,0.0,1.0,89,0.00,,---,0.00,VWS V14.01,2013-11-10 12:06:00,
2013-11-10 07:11:00,34.7,31.8,29.91,SW,228,0.0,1.0,89,0.00,,---,0.00,VWS V14.01,2013-11-10 12:11:00,
2013-11-10 07:16:00,34.8,32.2,29.91,SW,228,0.0,1.0,90,0.00,,---,0.00,VWS V14.01,2013-11-10 12:16:00,
2013-11-10 07:21:00,34.9,32.3,29.91,SSW,210,0.0,1.0,90,0.00,,---,0.00,VWS V14.01,2013-11-10 12:21:00,
2013-11-10 07:26:00,35.2,32.6,29.91,SSW,209,0.0,1.0,90,0.00,,---,0.00,VWS V14.01,2013-11-10 12:26:00,
2013-11-10 07:30:00,35.4,32.5,29.91,SSW,210,0.0,1.0,89,0.00,,---,0.00,VWS V14.01,2013-11-10 12:30:00,
2013-11-10 07:31:00,35.4,33.0,29.91,SSW,210,0.0,1.0,89,0.00,,,0.00,weatherlink.com 1.10,2013-11-10 12:31:00,
2013-11-10 07:36:00,35.5,32.9,29.90,SSW,210,1.0,1.0,90,0.00,,---,0.00,VWS V14.01,2013-11-10 12:36:00,
2013-11-10 07:41:00,35.9,33.3,29.90,SSW,210,0.0,1.0,90,0.00,,---,0.00,VWS V14.01,2013-11-10 12:41:00,
2013-11-10 07:46:00,36.1,33.2,29.90,SSW,210,0.0,1.0,89,0.00,,---,0.00,VWS V14.01,2013-11-10 12:46:00,
2013-11-10 07:51:00,36.7,33.8,29.90,SE,136,0.0,1.0,89,0.00,,---,0.00,VWS V14.01,2013-11-10 12:51:00,
2013-11-10 07:56:00,37.2,34.0,29.90,SE,136,0.0,1.0,88,0.00,,---,0.00,VWS V14.01,2013-11-10 12:56:00,
2013-11-10 08:00:00,37.9,34.4,29.90,SE,128,0.0,1.0,87,0.00,,---,0.00,VWS V14.01,2013-11-10 13:00:00,
2013-11-10 08:01:00,37.9,34.4,29.90,SE,128,1.0,1.0,87,0.00,,---,0.00,VWS V14.01,2013-11-10 13:01:00,
2013-11-10 08:06:00,38.8,34.4,29.90,West,275,0.0,1.0,84,0.00,,---,0.00,VWS V14.01,2013-11-10 13:06:00,
2013-11-10 08:11:00,39.6,34.6,29.90,SSE,162,0.0,1.0,82,0.00,,---,0.00,VWS V14.01,2013-11-10 13:11:00,
2013-11-10 08:16:00,40.6,35.2,29.90,SSE,161,0.0,2.0,81,0.00,,---,0.00,VWS V14.01,2013-11-10 13:16:00,
2013-11-10 08:21:00,41.4,35.1,29.90,SSE,165,0.0,2.0,78,0.00,,---,0.00,VWS V14.01,2013-11-10 13:21:00,
2013-11-10 08:26:00,42.0,35.3,29.90,SSE,162,1.0,2.0,77,0.00,,---,0.00,VWS V14.01,2013-11-10 13:26:00,
2013-11-10 08:30:00,42.4,35.0,29.90,SE,143,0.0,2.0,75,0.00,,---,0.00,VWS V14.01,2013-11-10 13:30:00,
2013-11-10 08:31:00,42.4,35.0,29.90,SW,236,0.0,0.0,75,0.00,,---,0.00,VWS V14.01,2013-11-10 13:31:00,
2013-11-10 08:36:00,42.9,35.5,29.90,WSW,246,0.0,1.0,75,0.00,,---,0.00,VWS V14.01,2013-11-10 13:36:00,
2013-11-10 08:41:00,43.4,35.7,29.90,SSE,149,1.0,1.0,74,0.00,,---,0.00,VWS V14.01,2013-11-10 13:41:00,
2013-11-10 08:46:00,44.1,35.7,29.90,SSE,153,1.0,1.0,72,0.00,,---,0.00,VWS V14.01,2013-11-10 13:46:00,
2013-11-10 08:51:00,45.1,35.5,29.90,SSE,156,0.0,2.0,69,0.00,,---,0.00,VWS V14.01,2013-11-10 13:51:00,
2013-11-10 08:56:00,46.2,35.5,29.89,SSE,155,1.0,3.0,66,0.00,,---,0.00,VWS V14.01,2013-11-10 13:56:00,
2013-11-10 09:00:00,47.1,35.6,29.89,SE,136,1.0,4.0,64,0.00,,---,0.00,VWS V14.01,2013-11-10 14:00:00,
2013-11-10 09:01:00,47.2,35.7,29.89,SSE,160,2.0,2.0,64,0.00,,---,0.00,VWS V14.01,2013-11-10 14:01:00,
2013-11-10 09:06:00,48.3,35.9,29.89,SE,141,0.0,2.0,62,0.00,,---,0.00,VWS V14.01,2013-11-10 14:06:00,
2013-11-10 09:11:00,49.4,36.1,29.89,West,269,0.0,2.0,60,0.00,,---,0.00,VWS V14.01,2013-11-10 14:11:00,
2013-11-10 09:16:00,50.5,36.3,29.89,West,271,2.0,5.0,58,0.00,,---,0.00,VWS V14.01,2013-11-10 14:16:00,
2013-11-10 09:21:00,51.8,36.2,29.89,West,274,13.0,13.0,55,0.00,,---,0.00,VWS V14.01,2013-11-10 14:21:00,
2013-11-10 09:26:00,53.5,35.8,29.88,West,273,8.0,13.0,51,0.00,,---,0.00,VWS V14.01,2013-11-10 14:26:00,
2013-11-10 09:30:00,54.5,35.8,29.88,WNW,288,5.0,18.0,49,0.00,,---,0.00,VWS V14.01,2013-11-10 14:30:00,
2013-11-10 09:31:00,54.5,35.8,29.88,WSW,249,9.0,9.0,49,0.00,,---,0.00,VWS V14.01,2013-11-10 14:31:00,
2013-11-10 09:36:00,54.9,35.6,29.88,West,280,9.0,14.0,48,0.00,,---,0.00,VWS V14.01,2013-11-10 14:36:00,
2013-11-10 09:41:00,55.1,35.8,29.88,West,265,6.0,14.0,48,0.00,,---,0.00,VWS V14.01,2013-11-10 14:41:00,
2013-11-10 09:46:00,55.4,36.1,29.88,South,187,4.0,14.0,48,0.00,,---,0.00,VWS V14.01,2013-11-10 14:46:00,
2013-11-10 09:51:00,55.6,36.2,29.88,NNW,342,4.0,14.0,48,0.00,,---,0.00,VWS V14.01,2013-11-10 14:51:00,
2013-11-10 09:56:00,55.8,35.9,29.87,WSW,249,8.0,14.0,47,0.00,,---,0.00,VWS V14.01,2013-11-10 14:56:00,
2013-11-10 10:00:00,55.8,35.9,29.87,WSW,238,4.0,17.0,47,0.00,,---,0.00,VWS V14.01,2013-11-10 15:00:00,
2013-11-10 10:01:00,55.7,35.8,29.87,West,270,3.0,17.0,47,0.00,,---,0.00,VWS V14.01,2013-11-10 15:01:00,
2013-11-10 10:06:00,56.0,35.5,29.87,WSW,249,7.0,15.0,46,0.00,,---,0.00,VWS V14.01,2013-11-10 15:06:00,
2013-11-10 10:11:00,56.2,35.7,29.86,West,278,4.0,15.0,46,0.00,,---,0.00,VWS V14.01,2013-11-10 15:11:00,
2013-11-10 10:16:00,56.3,35.2,29.86,West,267,9.0,15.0,45,0.00,,---,0.00,VWS V14.01,2013-11-10 15:16:00,
2013-11-10 10:21:00,56.4,35.3,29.87,West,260,11.0,15.0,45,0.00,,---,0.00,VWS V14.01,2013-11-10 15:21:00,
2013-11-10 10:26:00,56.2,35.2,29.86,WSW,250,8.0,16.0,45,0.00,,---,0.00,VWS V14.01,2013-11-10 15:26:00,
2013-11-10 10:30:00,56.4,35.3,29.86,South,183,4.0,16.0,45,0.00,,---,0.00,VWS V14.01,2013-11-10 15:30:00,
2013-11-10 10:31:00,56.3,35.2,29.86,SW,214,4.0,16.0,45,0.00,,---,0.00,VWS V14.01,2013-11-10 15:31:00,
2013-11-10 10:36:00,56.4,35.3,29.86,WSW,239,6.0,15.0,45,0.00,,---,0.00,VWS V14.01,2013-11-10 15:36:00,
2013-11-10 10:41:00,56.2,35.2,29.86,South,190,2.0,25.0,45,0.00,,---,0.00,VWS V14.01,2013-11-10 15:41:00,
2013-11-10 10:46:00,56.5,35.4,29.86,South,181,3.0,25.0,45,0.00,,---,0.00,VWS V14.01,2013-11-10 15:46:00,
2013-11-10 10:51:00,56.6,35.0,29.86,NW,314,5.0,25.0,44,0.00,,---,0.00,VWS V14.01,2013-11-10 15:51:00,
2013-11-10 10:56:00,56.6,35.0,29.85,West,275,9.0,25.0,44,0.00,,---,0.00,VWS V14.01,2013-11-10 15:56:00,
2013-11-10 11:00:00,56.9,35.2,29.85,WSW,248,4.0,25.0,44,0.00,,---,0.00,VWS V14.01,2013-11-10 16:00:00,
2013-11-10 11:01:00,56.9,35.2,29.85,WNW,284,4.0,25.0,44,0.00,,---,0.00,VWS V14.01,2013-11-10 16:01:00,
2013-11-10 11:06:00,57.2,34.9,29.85,WSW,252,9.0,15.0,43,0.00,,---,0.00,VWS V14.01,2013-11-10 16:06:00,
2013-11-10 11:11:00,57.3,34.4,29.85,West,265,8.0,19.0,42,0.00,,---,0.00,VWS V14.01,2013-11-10 16:11:00,
2013-11-10 11:16:00,57.1,33.6,29.85,West,269,18.0,20.0,41,0.00,,---,0.00,VWS V14.01,2013-11-10 16:16:00,
2013-11-10 11:21:00,57.0,32.9,29.85,WSW,257,18.0,20.0,40,0.00,,---,0.00,VWS V14.01,2013-11-10 16:21:00,
2013-11-10 11:26:00,56.9,32.8,29.84,West,277,6.0,20.0,40,0.00,,---,0.00,VWS V14.01,2013-11-10 16:26:00,
2013-11-10 11:30:00,57.0,32.9,29.85,West,274,14.0,20.0,40,0.00,,---,0.00,VWS V14.01,2013-11-10 16:30:00,
2013-11-10 11:31:00,57.0,32.9,29.85,West,271,12.0,20.0,40,0.00,,---,0.00,VWS V14.01,2013-11-10 16:31:00,
2013-11-10 11:36:00,57.0,32.9,29.84,WNW,300,7.0,21.0,40,0.00,,---,0.00,VWS V14.01,2013-11-10 16:36:00,
2013-11-10 11:41:00,57.2,33.7,29.84,West,269,5.0,21.0,41,0.00,,---,0.00,VWS V14.01,2013-11-10 16:41:00,
2013-11-10 11:46:00,57.2,33.7,29.83,West,262,4.0,21.0,41,0.00,,---,0.00,VWS V14.01,2013-11-10 16:46:00,
2013-11-10 11:51:00,57.1,33.6,29.83,WSW,246,12.0,21.0,41,0.00,,---,0.00,VWS V14.01,2013-11-10 16:51:00,
2013-11-10 11:56:00,56.8,34.0,29.84,North,357,6.0,21.0,42,0.00,,---,0.00,VWS V14.01,2013-11-10 16:56:00,
2013-11-10 12:00:00,56.9,34.1,29.83,WNW,301,6.0,21.0,42,0.00,,---,0.00,VWS V14.01,2013-11-10 17:00:00,
2013-11-10 12:01:00,56.9,34.1,29.83,West,269,7.0,21.0,42,0.00,,---,0.00,VWS V14.01,2013-11-10 17:01:00,
2013-11-10 12:06:00,57.1,34.2,29.83,WNW,293,4.0,16.0,42,0.00,,---,0.00,VWS V14.01,2013-11-10 17:06:00,
2013-11-10 12:11:00,56.7,33.9,29.83,West,271,11.0,18.0,42,0.00,,---,0.00,VWS V14.01,2013-11-10 17:11:00,
2013-11-10 12:16:00,56.9,34.1,29.83,SW,228,6.0,18.0,42,0.00,,---,0.00,VWS V14.01,2013-11-10 17:16:00,
2013-11-10 12:21:00,57.1,34.8,29.82,WSW,250,6.0,18.0,43,0.00,,---,0.00,VWS V14.01,2013-11-10 17:21:00,
2013-11-10 12:26:00,56.9,34.1,29.82,NW,317,6.0,18.0,42,0.00,,---,0.00,VWS V14.01,2013-11-10 17:26:00,
2013-11-10 12:30:00,56.5,34.3,29.82,West,264,7.0,18.0,43,0.00,,---,0.00,VWS V14.01,2013-11-10 17:30:00,
2013-11-10 12:31:00,56.6,34.4,29.82,WNW,286,8.0,18.0,43,0.00,,---,0.00,VWS V14.01,2013-11-10 17:31:00,
2013-11-10 12:36:00,56.3,34.1,29.82,WSW,246,18.0,18.0,43,0.00,,---,0.00,VWS V14.01,2013-11-10 17:36:00,
2013-11-10 12:40:00,56.3,34.1,29.82,WNW,284,9.0,21.0,43,0.00,,---,0.00,VWS V14.01,2013-11-10 17:40:00,
2013-11-10 12:45:00,56.1,33.9,29.82,WSW,248,4.0,21.0,43,0.00,,---,0.00,VWS V14.01,2013-11-10 17:45:00,
2013-11-10 12:50:00,56.1,33.9,29.83,WNW,291,5.0,21.0,43,0.00,,---,0.00,VWS V14.01,2013-11-10 17:50:00,
2013-11-10 12:55:00,56.0,33.8,29.83,West,271,3.0,21.0,43,0.00,,---,0.00,VWS V14.01,2013-11-10 17:55:00,
2013-11-10 13:00:00,55.8,34.2,29.84,NW,312,6.0,21.0,44,0.00,,---,0.00,VWS V14.01,2013-11-10 18:00:00,
2013-11-10 13:05:00,54.9,37.1,29.85,NNE,28,11.0,15.0,51,0.00,,---,0.00,VWS V14.01,2013-11-10 18:05:00,
2013-11-10 13:10:00,51.8,39.6,29.87,NNW,345,3.0,17.0,63,0.00,,---,0.00,VWS V14.01,2013-11-10 18:10:00,
2013-11-10 13:15:00,49.7,40.0,29.87,NE,48,2.0,17.0,69,0.00,,---,0.00,VWS V14.01,2013-11-10 18:15:00,
2013-11-10 13:20:00,48.4,40.2,29.87,NNE,32,2.0,17.0,73,0.00,,---,0.00,VWS V14.01,2013-11-10 18:20:00,
2013-11-10 13:25:00,47.8,39.6,29.87,NW,311,4.0,17.0,73,0.00,,---,0.00,VWS V14.01,2013-11-10 18:25:00,
2013-11-10 13:30:00,47.5,40.0,29.88,NNE,25,2.0,17.0,75,0.00,,---,0.00,VWS V14.01,2013-11-10 18:30:00,
2013-11-10 13:35:00,47.3,40.1,29.88,North,359,3.0,5.0,76,0.00,,---,0.00,VWS V14.01,2013-11-10 18:35:00,
2013-11-10 13:40:00,47.2,39.7,29.88,WNW,302,6.0,7.0,75,0.00,,---,0.00,VWS V14.01,2013-11-10 18:40:00,
2013-11-10 13:45:00,47.2,39.3,29.88,NE,45,5.0,8.0,74,0.00,,---,0.00,VWS V14.01,2013-11-10 18:45:00,
2013-11-10 13:50:00,47.0,39.2,29.89,NW,315,5.0,8.0,74,0.00,,---,0.00,VWS V14.01,2013-11-10 18:50:00,
2013-11-10 13:55:00,46.9,39.1,29.89,West,278,6.0,8.0,74,0.00,,---,0.00,VWS V14.01,2013-11-10 18:55:00,
2013-11-10 14:00:00,46.9,39.4,29.89,West,280,7.0,10.0,75,0.00,,---,0.00,VWS V14.01,2013-11-10 19:00:00,
2013-11-10 14:05:00,46.8,39.3,29.90,NNW,328,2.0,8.0,75,0.00,,---,0.00,VWS V14.01,2013-11-10 19:05:00,
2013-11-10 14:10:00,46.7,39.2,29.90,NW,326,3.0,8.0,75,0.00,,---,0.00,VWS V14.01,2013-11-10 19:10:00,
2013-11-10 14:15:00,46.6,39.1,29.90,ENE,63,1.0,9.0,75,0.00,,---,0.00,VWS V14.01,2013-11-10 19:15:00,
2013-11-10 14:20:00,46.5,39.0,29.90,West,259,3.0,9.0,75,0.00,,---,0.00,VWS V14.01,2013-11-10 19:20:00,
2013-11-10 14:25:00,46.3,39.2,29.90,WNW,302,3.0,9.0,76,0.00,,---,0.00,VWS V14.01,2013-11-10 19:25:00,
2013-11-10 14:30:00,46.2,38.7,29.91,NW,325,7.0,9.0,75,0.00,,---,0.00,VWS V14.01,2013-11-10 19:30:00,
2013-11-10 14:35:00,46.2,38.7,29.91,NW,323,0.0,9.0,75,0.00,,---,0.00,VWS V14.01,2013-11-10 19:35:00,
2013-11-10 14:40:00,46.3,38.5,29.91,NNW,330,3.0,12.0,74,0.00,,---,0.00,VWS V14.01,2013-11-10 19:40:00,
2013-11-10 14:45:00,46.5,38.7,29.92,WSW,245,5.0,12.0,74,0.00,,---,0.00,VWS V14.01,2013-11-10 19:45:00,
2013-11-10 14:50:00,46.7,38.9,29.91,West,273,3.0,12.0,74,0.00,,---,0.00,VWS V14.01,2013-11-10 19:50:00,
2013-11-10 14:55:00,46.9,38.4,29.91,NNW,330,4.0,12.0,72,0.00,,---,0.00,VWS V14.01,2013-11-10 19:55:00,
2013-11-10 15:00:00,47.0,38.5,29.92,SSW,208,2.0,12.0,72,0.00,,---,0.00,VWS V14.01,2013-11-10 20:00:00,
2013-11-10 15:05:00,47.1,38.2,29.91,SW,221,2.0,4.0,71,0.00,,---,0.00,VWS V14.01,2013-11-10 20:05:00,
2013-11-10 15:10:00,47.1,37.5,29.91,WSW,248,4.0,7.0,69,0.00,,---,0.00,VWS V14.01,2013-11-10 20:10:00,
2013-11-10 15:15:00,47.1,37.5,29.91,SSE,150,1.0,7.0,69,0.00,,---,0.00,VWS V14.01,2013-11-10 20:15:00,
2013-11-10 15:20:00,47.1,36.7,29.91,WNW,301,4.0,8.0,67,0.00,,---,0.00,VWS V14.01,2013-11-10 20:20:00,
2013-11-10 15:25:00,47.2,36.4,29.92,SW,214,2.0,8.0,66,0.00,,---,0.00,VWS V14.01,2013-11-10 20:25:00,
2013-11-10 15:30:00,47.4,36.2,29.92,NNW,334,2.0,8.0,65,0.00,,---,0.00,VWS V14.01,2013-11-10 20:30:00,
2013-11-10 15:35:00,47.5,35.9,29.92,SW,228,3.0,7.0,64,0.00,,---,0.00,VWS V14.01,2013-11-10 20:35:00,
2013-11-10 15:40:00,47.4,35.8,29.92,NW,316,2.0,8.0,64,0.00,,---,0.00,VWS V14.01,2013-11-10 20:40:00,
2013-11-10 15:45:00,47.4,35.5,29.92,WNW,300,2.0,8.0,63,0.00,,---,0.00,VWS V14.01,2013-11-10 20:45:00,
2013-11-10 15:50:00,47.6,35.6,29.93,East,96,0.0,11.0,63,0.01,,---,0.01,VWS V14.01,2013-11-10 20:50:00,
2013-11-10 15:55:00,47.7,36.1,29.93,North,11,3.0,11.0,64,0.01,,---,0.01,VWS V14.01,2013-11-10 20:55:00,
2013-11-10 16:00:00,47.9,35.9,29.93,South,177,1.0,11.0,63,0.01,,---,0.01,VWS V14.01,2013-11-10 21:00:00,
2013-11-10 16:05:00,48.1,36.1,29.93,NNW,335,0.0,4.0,63,0.01,,---,0.01,VWS V14.01,2013-11-10 21:05:00,
2013-11-10 16:10:00,48.2,36.6,29.93,SE,132,1.0,4.0,64,0.01,,---,0.01,VWS V14.01,2013-11-10 21:10:00,
2013-11-10 16:15:00,48.0,36.0,29.93,West,273,1.0,4.0,63,0.01,,---,0.01,VWS V14.01,2013-11-10 21:15:00,
2013-11-10 16:20:00,48.0,35.6,29.93,SSW,211,2.0,11.0,62,0.01,,---,0.01,VWS V14.01,2013-11-10 21:20:00,
2013-11-10 16:25:00,48.1,35.7,29.93,SSE,150,3.0,11.0,62,0.01,,---,0.01,VWS V14.01,2013-11-10 21:25:00,
2013-11-10 16:30:00,48.1,35.3,29.94,WNW,292,2.0,11.0,61,0.01,,---,0.01,VWS V14.01,2013-11-10 21:30:00,
2013-11-10 16:35:00,48.1,34.9,29.93,SSE,153,4.0,7.0,60,0.01,,---,0.01,VWS V14.01,2013-11-10 21:35:00,
2013-11-10 16:40:00,48.2,35.0,29.94,WNW,293,4.0,7.0,60,0.01,,---,0.01,VWS V14.01,2013-11-10 21:40:00,
2013-11-10 16:45:00,48.1,35.3,29.94,SW,226,1.0,8.0,61,0.01,,---,0.01,VWS V14.01,2013-11-10 21:45:00,
2013-11-10 16:50:00,48.0,35.2,29.94,West,273,7.0,11.0,61,0.01,,---,0.01,VWS V14.01,2013-11-10 21:50:00,
2013-11-10 16:55:00,47.7,35.3,29.95,West,268,6.0,11.0,62,0.01,,---,0.01,VWS V14.01,2013-11-10 21:55:00,
2013-11-10 17:00:00,47.6,35.6,29.95,WNW,288,4.0,11.0,63,0.01,,---,0.01,VWS V14.01,2013-11-10 22:00:00,
2013-11-10 17:05:00,47.4,35.5,29.95,SW,235,2.0,5.0,63,0.00,,---,0.01,VWS V14.01,2013-11-10 22:05:00,
2013-11-10 17:10:00,47.2,36.0,29.95,WSW,249,1.0,5.0,65,0.00,,---,0.01,VWS V14.01,2013-11-10 22:10:00,
2013-11-10 17:15:00,47.1,36.0,29.95,West,266,5.0,5.0,65,0.00,,---,0.01,VWS V14.01,2013-11-10 22:15:00,
2013-11-10 17:20:00,47.0,35.9,29.95,West,268,4.0,6.0,65,0.00,,---,0.01,VWS V14.01,2013-11-10 22:20:00,
2013-11-10 17:25:00,47.0,35.9,29.95,West,278,2.0,6.0,65,0.00,,---,0.01,VWS V14.01,2013-11-10 22:25:00,
2013-11-10 17:30:00,47.0,35.9,29.95,SSE,160,0.0,6.0,65,0.00,,---,0.01,VWS V14.01,2013-11-10 22:30:00,
2013-11-10 17:35:00,47.1,36.0,29.96,West,267,2.0,6.0,65,0.00,,---,0.01,VWS V14.01,2013-11-10 22:35:00,
2013-11-10 17:40:00,47.0,35.9,29.96,North,10,1.0,6.0,65,0.00,,---,0.01,VWS V14.01,2013-11-10 22:40:00,
2013-11-10 17:45:00,46.9,35.8,29.97,West,267,1.0,6.0,65,0.00,,---,0.01,VWS V14.01,2013-11-10 22:45:00,
2013-11-10 17:50:00,46.9,35.8,29.97,West,280,5.0,6.0,65,0.00,,---,0.01,VWS V14.01,2013-11-10 22:50:00,
2013-11-10 17:55:00,47.1,35.2,29.97,WNW,302,3.0,6.0,63,0.00,,---,0.01,VWS V14.01,2013-11-10 22:55:00,
2013-11-10 18:00:00,47.3,34.5,29.97,SSE,160,0.0,10.0,61,0.00,,---,0.01,VWS V14.01,2013-11-10 23:00:00,
2013-11-10 18:05:00,47.5,34.3,29.97,West,263,4.0,6.0,60,0.00,,---,0.01,VWS V14.01,2013-11-10 23:05:00,
2013-11-10 18:10:00,47.7,33.2,29.98,NW,318,3.0,13.0,57,0.00,,---,0.01,VWS V14.01,2013-11-10 23:10:00,
2013-11-10 18:15:00,47.9,33.8,29.98,SE,142,2.0,13.0,58,0.00,,---,0.01,VWS V14.01,2013-11-10 23:15:00,
2013-11-10 18:20:00,48.0,32.6,29.98,WSW,256,7.0,13.0,55,0.00,,---,0.01,VWS V14.01,2013-11-10 23:20:00,
2013-11-10 18:25:00,48.2,32.8,29.98,WSW,256,1.0,13.0,55,0.00,,---,0.01,VWS V14.01,2013-11-10 23:25:00,
2013-11-10 18:30:00,48.1,32.3,29.98,WSW,249,4.0,13.0,54,0.00,,---,0.01,VWS V14.01,2013-11-10 23:30:00,
2013-11-10 18:35:00,48.1,31.8,29.98,NW,305,6.0,9.0,53,0.00,,---,0.01,VWS V14.01,2013-11-10 23:35:00,
2013-11-10 18:40:00,48.3,32.0,29.98,West,267,0.0,9.0,53,0.00,,---,0.01,VWS V14.01,2013-11-10 23:40:00,
2013-11-10 18:45:00,48.2,31.9,29.98,WSW,245,8.0,9.0,53,0.00,,---,0.01,VWS V14.01,2013-11-10 23:45:00,
2013-11-10 18:50:00,48.1,31.8,29.98,West,271,5.0,9.0,53,0.00,,---,0.01,VWS V14.01,2013-11-10 23:50:00,
2013-11-10 18:55:00,48.0,32.2,29.98,West,269,2.0,9.0,54,0.00,,---,0.01,VWS V14.01,2013-11-10 23:55:00,
2013-11-10 19:00:00,47.9,31.6,29.98,West,276,3.0,9.0,53,0.00,,---,0.01,VWS V14.01,2013-11-11 00:00:00,
2013-11-10 19:05:00,48.0,31.7,29.99,WSW,255,3.0,5.0,53,0.00,,---,0.01,VWS V14.01,2013-11-11 00:05:00,
2013-11-10 19:10:00,47.9,31.6,29.98,West,277,3.0,8.0,53,0.00,,---,0.01,VWS V14.01,2013-11-11 00:10:00,
2013-11-10 19:15:00,47.9,31.1,29.99,SW,214,1.0,8.0,52,0.00,,---,0.01,VWS V14.01,2013-11-11 00:15:00,
2013-11-10 19:20:00,47.9,31.1,29.99,WNW,288,2.0,8.0,52,0.00,,---,0.01,VWS V14.01,2013-11-11 00:20:00,
2013-11-10 19:25:00,47.9,31.1,29.98,West,264,8.0,15.0,52,0.00,,---,0.01,VWS V14.01,2013-11-11 00:25:00,
2013-11-10 19:30:00,48.0,31.2,29.99,NNE,22,5.0,15.0,52,0.00,,---,0.01,VWS V14.01,2013-11-11 00:30:00,
2013-11-10 19:35:00,48.1,30.8,29.99,West,260,3.0,8.0,51,0.00,,---,0.01,VWS V14.01,2013-11-11 00:35:00,
2013-11-10 19:40:00,48.1,30.8,29.99,West,270,7.0,8.0,51,0.00,,---,0.01,VWS V14.01,2013-11-11 00:40:00,
2013-11-10 19:45:00,48.1,30.8,29.99,West,273,13.0,13.0,51,0.00,,---,0.01,VWS V14.01,2013-11-11 00:45:00,
2013-11-10 19:50:00,48.1,30.8,29.99,WNW,282,2.0,13.0,51,0.00,,---,0.01,VWS V14.01,2013-11-11 00:50:00,
2013-11-10 19:55:00,48.0,31.2,29.99,NW,317,5.0,13.0,52,0.00,,---,0.01,VWS V14.01,2013-11-11 00:55:00,
2013-11-10 20:00:00,47.8,31.0,29.99,SSW,210,2.0,13.0,52,0.00,,---,0.01,VWS V14.01,2013-11-11 01:00:00,
2013-11-10 20:05:00,47.7,31.0,30.00,WSW,243,5.0,10.0,52,0.00,,---,0.01,VWS V14.01,2013-11-11 01:05:00,
2013-11-10 20:10:00,47.8,31.0,30.00,NNW,337,2.0,10.0,52,0.00,,---,0.01,VWS V14.01,2013-11-11 01:10:00,
2013-11-10 20:15:00,47.7,31.0,29.99,North,359,6.0,10.0,52,0.00,,---,0.01,VWS V14.01,2013-11-11 01:15:00,
2013-11-10 20:20:00,47.5,30.8,30.00,WSW,258,2.0,10.0,52,0.00,,---,0.01,VWS V14.01,2013-11-11 01:20:00,
2013-11-10 20:25:00,47.7,30.5,30.00,WNW,282,5.0,13.0,51,0.00,,---,0.01,VWS V14.01,2013-11-11 01:25:00,
2013-11-10 20:30:00,47.7,30.5,30.00,West,275,4.0,13.0,51,0.00,,---,0.01,VWS V14.01,2013-11-11 01:30:00,
2013-11-10 20:35:00,47.7,30.5,30.01,WNW,287,5.0,9.0,51,0.00,,---,0.01,VWS V14.01,2013-11-11 01:35:00,
2013-11-10 20:40:00,47.7,30.5,30.01,NW,309,3.0,9.0,51,0.00,,---,0.01,VWS V14.01,2013-11-11 01:40:00,
2013-11-10 20:45:00,47.8,30.6,30.01,West,273,4.0,12.0,51,0.00,,---,0.01,VWS V14.01,2013-11-11 01:45:00,
2013-11-10 20:50:00,47.8,30.1,30.02,West,278,5.0,15.0,50,0.00,,---,0.01,VWS V14.01,2013-11-11 01:50:00,
2013-11-10 20:55:00,47.8,30.6,30.02,NNE,23,1.0,15.0,51,0.00,,---,0.01,VWS V14.01,2013-11-11 01:55:00,
2013-11-10 21:00:00,47.8,30.6,30.02,West,260,1.0,15.0,51,0.00,,---,0.01,VWS V14.01,2013-11-11 02:00:00,
2013-11-10 21:05:00,47.7,31.0,30.02,West,278,2.0,8.0,52,0.00,,---,0.01,VWS V14.01,2013-11-11 02:05:00,
2013-11-10 21:10:00,47.5,30.8,30.02,NNW,329,4.0,10.0,52,0.00,,---,0.01,VWS V14.01,2013-11-11 02:10:00,
2013-11-10 21:15:00,47.5,31.2,30.02,West,269,3.0,10.0,53,0.00,,---,0.01,VWS V14.01,2013-11-11 02:15:00,
2013-11-10 21:20:00,47.4,31.1,30.02,WSW,257,6.0,10.0,53,0.00,,---,0.01,VWS V14.01,2013-11-11 02:20:00,
2013-11-10 21:25:00,47.3,31.0,30.02,NW,321,3.0,10.0,53,0.00,,---,0.01,VWS V14.01,2013-11-11 02:25:00,
2013-11-10 21:30:00,47.2,31.0,30.02,West,270,8.0,10.0,53,0.00,,---,0.01,VWS V14.01,2013-11-11 02:30:00,
2013-11-10 21:35:00,47.3,31.0,30.02,WNW,291,4.0,9.0,53,0.00,,---,0.01,VWS V14.01,2013-11-11 02:35:00,
2013-11-10 21:40:00,47.3,31.0,30.02,West,278,2.0,9.0,53,0.00,,---,0.01,VWS V14.01,2013-11-11 02:40:00,
2013-11-10 21:45:00,47.4,30.7,30.02,West,276,3.0,11.0,52,0.00,,---,0.01,VWS V14.01,2013-11-11 02:45:00,
2013-11-10 21:51:00,47.5,30.0,30.03,WSW,257,3.0,10.0,52,0.00,,,0.01,weatherlink.com 1.10,2013-11-11 02:51:00,
2013-11-10 22:00:00,47.4,30.7,30.02,West,270,4.0,11.0,52,0.00,,---,0.01,VWS V14.01,2013-11-11 03:00:00,
2013-11-10 22:06:00,47.3,31.0,30.02,SE,138,2.0,9.0,53,0.00,,,0.01,weatherlink.com 1.10,2013-11-11 03:06:00,
2013-11-10 22:21:00,47.2,31.0,30.03,NW,309,3.0,10.0,53,0.00,,,0.01,weatherlink.com 1.10,2013-11-11 03:21:00,
2013-11-10 22:30:00,47.2,31.0,30.03,West,270,4.0,12.0,53,0.00,,---,0.01,VWS V14.01,2013-11-11 03:30:00,
2013-11-10 22:36:00,47.0,30.0,30.03,WNW,288,5.0,8.0,53,0.00,,,0.01,weatherlink.com 1.10,2013-11-11 03:36:00,
2013-11-10 22:51:00,46.7,31.0,30.03,West,280,2.0,8.0,55,0.00,,,0.01,weatherlink.com 1.10,2013-11-11 03:51:00,
2013-11-10 23:00:00,46.8,31.5,30.03,West,270,3.0,13.0,55,0.00,,---,0.01,VWS V14.01,2013-11-11 04:00:00,
2013-11-10 23:06:00,46.5,30.0,30.04,WNW,285,0.0,12.0,54,0.00,,,0.01,weatherlink.com 1.10,2013-11-11 04:06:00,
2013-11-10 23:21:00,46.3,30.0,30.04,West,269,7.0,14.0,54,0.00,,,0.01,weatherlink.com 1.10,2013-11-11 04:21:00,
2013-11-10 23:30:00,46.4,30.7,30.05,West,270,3.0,14.0,54,0.00,,---,0.01,VWS V14.01,2013-11-11 04:30:00,
2013-11-10 23:36:00,46.1,30.0,30.05,WSW,246,1.0,5.0,54,0.00,,,0.01,weatherlink.com 1.10,2013-11-11 04:36:00,
2013-11-10 23:51:00,45.9,30.0,30.06,WSW,250,3.0,8.0,55,0.00,,,0.01,weatherlink.com 1.10,2013-11-11 04:51:00,